FW4758 Weather Reports


Display with metric or nautical units.
time (UTC)temp
F
wind
direction
speed
MPH
gust
MPH
rain 1hr
in
rain 24hr
in
rain mn
in
humidity
%
barometer
mb
20260510230043 65 74 9.0 16.0 0.00 0.00 0.00 84 1014.9
20260510224544 65 46 12.0 21.0 0.00 0.00 0.00 84 1014.6
20260510223047 66 58 8.0 16.0 0.00 0.00 0.00 84 1015.1
20260510221540 66 23 11.0 21.0 0.00 0.00 0.00 84 1015.4
20260510220034 67 55 14.0 22.0 0.00 0.00 0.00 83 1014.0
20260510214530 68 50 10.0 21.0 0.00 0.00 0.00 83 1015.1
20260510213041 69 58 8.0 21.0 0.00 0.00 0.00 80 1014.5
20260510211531 70 36 8.0 16.0 0.00 0.00 0.00 78 1014.8
20260510210041 71 24 7.0 18.0 0.00 0.00 0.00 77 1014.8
20260510204536 72 42 9.0 16.0 0.00 0.00 0.00 76 1014.0
20260510203030 72 55 8.0 14.0 0.00 0.00 0.00 77 1014.3
20260510201525 71 12 10.0 15.0 0.00 0.00 0.00 78 1014.6
20260510200025 70 66 13.0 19.0 0.00 0.00 0.00 78 1014.5
20260510194524 71 48 11.0 19.0 0.00 0.00 0.00 80 1014.7
20260510193024 71 70 12.0 19.0 0.00 0.00 0.00 80 1014.7
20260510191522 71 74 11.0 18.0 0.00 0.00 0.00 78 1014.5
20260510190020 72 42 10.0 18.0 0.00 0.00 0.00 75 1014.2
20260510184518 73 53 10.0 18.0 0.00 0.00 0.00 73 1014.0
20260510183018 73 58 12.0 17.0 0.00 0.00 0.00 73 1014.0
20260510181546 74 67 11.0 17.0 0.00 0.00 0.00 73 1013.6
20260510180017 70 63 9.0 18.0 0.00 0.00 0.00 74 1014.0
20260510174517 73 15 14.0 23.0 0.00 0.00 0.00 68 1014.0
20260510173015 78 63 2.0 6.0 0.00 0.00 0.00 76 1013.9
20260510171514 77 94 5.0 8.0 0.00 0.00 0.00 75 1013.9
20260510170011 78 150 4.0 10.0 0.00 0.00 0.00 74 1013.3
20260510164508 78 150 7.0 13.0 0.00 0.00 0.00 74 1012.7
20260510163006 78 137 10.0 18.0 0.00 0.00 0.00 74 1012.4
20260510161503 77 120 9.0 16.0 0.00 0.00 0.00 74 1012.0
20260510160007 76 159 11.0 18.0 0.00 0.00 0.00 75 1011.6
20260510154603 75 157 10.0 19.0 0.00 0.00 0.00 75 1011.8
20260510153106 75 137 13.0 21.0 0.00 0.00 0.00 75 1011.8
20260510151556 74 101 12.0 19.0 0.00 0.00 0.00 74 1012.1
20260510150056 74 120 16.0 21.0 0.00 0.00 0.00 74 1012.0
20260510144555 73 112 10.0 21.0 0.00 0.00 0.00 74 1012.3
20260510143104 72 96 12.0 18.0 0.00 0.00 0.00 73 1012.4
20260510141555 71 110 11.0 19.0 0.00 0.00 0.00 73 1012.7
20260510140053 71 121 11.0 17.0 0.00 0.00 0.00 73 1012.7
20260510134557 70 66 11.0 18.0 0.00 0.00 0.00 75 1012.6
20260510133052 69 103 9.0 16.0 0.00 0.00 0.00 77 1012.8
20260510131549 69 88 9.0 16.0 0.00 0.00 0.00 77 1012.4
20260510130048 68 99 9.0 17.0 0.00 0.00 0.00 79 1012.4
20260510124547 68 103 9.0 16.0 0.00 0.00 0.00 79 1012.3
20260510123044 67 96 10.0 17.0 0.00 0.00 0.00 80 1012.1
20260510121542 67 85 11.0 18.0 0.00 0.00 0.00 80 1011.7
20260510120039 68 90 12.0 21.0 0.00 0.00 0.00 81 1011.5
20260510114539 68 94 9.0 17.0 0.00 0.00 0.00 81 1011.4
20260510113035 69 69 12.0 19.0 0.00 0.00 0.00 82 1011.4
20260510111531 69 96 13.0 21.0 0.00 0.00 0.00 82 1011.2
20260510110030 71 80 13.0 19.0 0.00 0.00 0.00 84 1011.1
20260510104524 71 82 9.0 15.0 0.00 0.00 0.00 84 1011.0
20260510103025 71 85 7.0 16.0 0.00 0.00 0.00 84 1010.9
20260510101522 71 64 6.0 14.0 0.00 0.00 0.00 84 1010.9
20260510100020 71 80 8.0 13.0 0.00 0.00 0.00 84 1010.6
20260510094523 70 74 7.0 11.0 0.00 0.00 0.00 84 1010.2
20260510093017 70 60 5.0 9.0 0.00 0.00 0.00 84 1010.0
20260510091510 70 80 5.0 8.0 0.00 0.00 0.00 84 1009.3
20260510090016 70 59 3.0 7.0 0.00 0.00 0.00 83 1009.6
20260510084508 70 34 3.0 5.0 0.00 0.00 0.00 83 1009.4
20260510083006 70 14 3.0 4.0 0.00 0.00 0.00 83 1008.9
20260510081519 70 65 2.0 3.0 0.00 0.00 0.00 83 1008.4
20260510080002 71 86 2.0 5.0 0.00 0.00 0.00 82 1008.3
20260510074602 71 122 3.0 7.0 0.00 0.00 0.00 81 1008.2
20260510073057 72 136 4.0 8.0 0.00 0.00 0.00 81 1008.3
20260510071558 73 103 3.0 6.0 0.00 0.00 0.00 80 1008.5
20260510070053 73 100 3.0 5.0 0.00 0.00 0.00 81 1008.9
20260510064552 74 42 4.0 6.0 0.00 0.00 0.00 79 1009.0
20260510063048 74 182 5.0 11.0 0.00 0.00 0.00 78 1007.8
20260510061550 74 167 6.0 11.0 0.00 0.00 0.00 77 1007.6
20260510060044 74 158 6.0 11.0 0.00 0.00 0.00 75 1007.4
20260510054544 74 169 6.0 9.0 0.00 0.00 0.00 75 1007.2
20260510053039 73 148 4.0 8.0 0.00 0.00 0.00 74 1007.0
20260510051537 74 128 5.0 10.0 0.00 0.00 0.00 72 1007.0
20260510050039 74 132 7.0 12.0 0.00 0.00 0.00 73 1006.8
20260510044535 74 123 6.0 12.0 0.00 0.00 0.00 73 1006.9
20260510043033 74 146 6.0 12.0 0.00 0.00 0.00 71 1007.3
20260510041532 75 132 6.0 9.0 0.00 0.00 0.00 68 1007.2
20260510040034 75 107 6.0 8.0 0.00 0.00 0.00 66 1007.3
20260510034533 76 144 7.0 10.0 0.00 0.00 0.00 65 1007.5
20260510033031 76 109 7.0 10.0 0.00 0.00 0.00 65 1007.5
20260510031542 76 117 7.0 9.0 0.00 0.00 0.00 66 1007.5
20260510030030 76 100 4.0 10.0 0.00 0.00 0.00 66 1007.3
20260510024540 76 95 3.0 7.0 0.00 0.00 0.00 66 1007.3
20260510023028 76 123 2.0 4.0 0.00 0.00 0.00 65 1007.2
20260510021528 77 119 1.0 3.0 0.00 0.00 0.00 63 1006.9
20260510020027 78 134 3.0 6.0 0.00 0.00 0.00 62 1006.8
20260510014528 79 130 2.0 4.0 0.00 0.00 0.00 60 1006.6
20260510013026 79 107 2.0 4.0 0.00 0.00 0.00 59 1006.3
20260510011534 80 107 2.0 5.0 0.00 0.00 0.00 58 1006.2
20260510010025 82 134 3.0 5.0 0.00 0.00 0.00 56 1006.1
20260510004525 83 126 3.0 5.0 0.00 0.00 0.00 53 1006.0
20260510003050 84 107 2.0 5.0 0.00 0.00 0.00 53 1006.0
20260510001529 85 117 3.0 8.0 0.00 0.00 0.00 51 1006.0
20260510000024 86 130 3.0 7.0 0.00 0.00 0.00 51 1006.1
20260509234528 86 144 3.0 6.0 0.00 0.00 0.00 49 1006.1
20260509233023 87 144 2.0 5.0 0.00 0.00 0.00 50 1006.1
20260509231530 87 198 0.0 3.0 0.00 0.00 0.00 46 1006.1